Location: Antichan
(42.9728°N, 0.6667°E)
Time: 13:44:14
(UTC+00:00)

MOS 1-B Rocket - Pass Details

Date: 15 August 2020
Orbit: 890 x 1606 km, 99.1° (Epoch: 24 September)

Event Time Altitude Azimuth Distance (km) Brightness Sun altitude
Rises 22:15:09 0° 17° (NNE) 3,521 7.5 -28.3°
Reaches altitude 10° 22:17:33 10° 20° (NNE) 2,567 6.7 -28.5°
Enters shadow 22:22:16 57° 59° (ENE) 1,056 4.1 -28.9°
